When you browse on this site, cookies collect data to enhance your experience and personalize the content and advertising you see.
Visit our Privacy Policy to learn more. By continuing to use the site, you agree to this use of cookies and data.
  • In United Kingdom
  • List of Countries
  • For 7 days
  • Water Temperature
  • Weather Map
  • Weather Widgets
  • user-avatar
    Login

    Hourly Weather Zenica

    Today, 20 January, Monday

    Time Temperature Precipitation Wind Pressure Humidity
    00:00 -5°C° 0 mm 2 mps 686 mmHg 92%
    01:00 -4°C° 0 mm 1 mps 686 mmHg 92%
    02:00 -4°C° 0.1 mm 1 mps 686 mmHg 92%
    03:00 -4°C° 0.1 mm 1 mps 686 mmHg 91%
    04:00 -4°C° 0.1 mm 1 mps 687 mmHg 91%
    05:00 -4°C° 0 mm 1 mps 687 mmHg 91%
    06:00 -4°C° 0 mm 1 mps 688 mmHg 91%
    07:00 -4°C° 0 mm 1 mps 688 mmHg 92%
    08:00 -4°C° 0 mm 1 mps 688 mmHg 88%
    09:00 -3°C° 0 mm 1 mps 689 mmHg 84%
    10:00 -3°C° 0 mm 1 mps 690 mmHg 80%
    11:00 -4°C° 0 mm 2 mps 690 mmHg 79%
    12:00 -4°C° 0 mm 2 mps 690 mmHg 77%
    13:00 -3°C° 0 mm 2 mps 691 mmHg 76%
    14:00 -4°C° 0 mm 2 mps 691 mmHg 78%
    15:00 -4°C° 0 mm 2 mps 691 mmHg 81%
    16:00 -2°C° 0 mm 1 mps 691 mmHg 83%
    17:00 -3°C° 0 mm 1 mps 691 mmHg 86%
    18:00 -3°C° 0 mm 1 mps 691 mmHg 89%
    19:00 -4°C° 0 mm 1 mps 691 mmHg 92%
    20:00 -4°C° 0 mm 1 mps 691 mmHg 91%
    21:00 -4°C° 0 mm 1 mps 692 mmHg 91%
    22:00 -4°C° 0 mm 1 mps 692 mmHg 91%
    23:00 -6°C° 0 mm 1 mps 692 mmHg 91%

    Tomorrow, 21 January, Tuesday

    Time Temperature Precipitation Wind Pressure Humidity
    00:00 -6°C° 0 mm 0 mps 692 mmHg 91%
    01:00 -6°C° 0 mm 0 mps 691 mmHg 91%
    02:00 -6°C° 0 mm 0 mps 691 mmHg 90%
    03:00 -6°C° 0 mm 0 mps 691 mmHg 90%
    04:00 -7°C° 0 mm 0 mps 691 mmHg 89%
    05:00 -7°C° 0 mm 0 mps 691 mmHg 87%
    06:00 -6°C° 0 mm 0 mps 691 mmHg 85%
    07:00 -6°C° 0 mm 0 mps 691 mmHg 83%
    08:00 -5°C° 0 mm 0 mps 691 mmHg 76%
    09:00 -3°C° 0 mm 0 mps 691 mmHg 68%
    10:00 0°C° 0 mm 1 mps 691 mmHg 60%
    11:00 +1°C° 0 mm 1 mps 691 mmHg 58%
    12:00 +2°C° 0 mm 1 mps 691 mmHg 56%
    13:00 +4°C° 0 mm 1 mps 691 mmHg 54%
    14:00 +2°C° 0 mm 0 mps 691 mmHg 58%
    15:00 +1°C° 0 mm 0 mps 690 mmHg 62%
    16:00 0°C° 0 mm 0 mps 690 mmHg 67%
    17:00 -1°C° 0 mm 0 mps 689 mmHg 65%
    18:00 -1°C° 0 mm 0 mps 689 mmHg 63%
    19:00 -2°C° 0 mm 0 mps 689 mmHg 61%
    20:00 -2°C° 0 mm 0 mps 689 mmHg 58%
    21:00 -1°C° 0 mm 0 mps 688 mmHg 55%
    22:00 -1°C° 0 mm 0 mps 688 mmHg 52%
    23:00 -1°C° 0 mm 0 mps 688 mmHg 50%

    Day after tomorrow, 22 January, Wednesday

    Time Temperature Precipitation Wind Pressure Humidity
    00:00 -1°C° 0 mm 0 mps 688 mmHg 47%
    01:00 0°C° 0 mm 1 mps 688 mmHg 44%
    02:00 0°C° 0 mm 1 mps 687 mmHg 42%
    03:00 0°C° 0 mm 1 mps 687 mmHg 40%
    04:00 0°C° 0 mm 1 mps 686 mmHg 38%
    05:00 0°C° 0 mm 1 mps 686 mmHg 37%
    06:00 0°C° 0 mm 1 mps 686 mmHg 35%
    07:00 +1°C° 0 mm 1 mps 686 mmHg 34%
    08:00 +2°C° 0 mm 1 mps 686 mmHg 35%
    09:00 +4°C° 0 mm 1 mps 686 mmHg 35%
    10:00 +5°C° 0 mm 1 mps 686 mmHg 36%
    11:00 +6°C° 0 mm 1 mps 686 mmHg 38%
    12:00 +7°C° 0 mm 1 mps 686 mmHg 41%
    13:00 +7°C° 0 mm 0 mps 686 mmHg 44%
    14:00 +6°C° 0 mm 0 mps 685 mmHg 46%
    15:00 +4°C° 0 mm 0 mps 685 mmHg 49%
    16:00 +3°C° 0 mm 0 mps 684 mmHg 52%
    17:00 +2°C° 0 mm 0 mps 684 mmHg 52%
    18:00 +1°C° 0 mm 0 mps 684 mmHg 53%
    19:00 +1°C° 0 mm 1 mps 684 mmHg 53%
    20:00 +1°C° 0 mm 1 mps 684 mmHg 56%
    21:00 0°C° 0 mm 1 mps 684 mmHg 58%
    22:00 0°C° 0 mm 1 mps 684 mmHg 60%
    23:00 0°C° 0 mm 1 mps 684 mmHg 60%

    23 January, Thursday

    Time Temperature Precipitation Wind Pressure Humidity
    00:00 -1°C° 0 mm 1 mps 684 mmHg 59%
    01:00 -1°C° 0 mm 1 mps 684 mmHg 59%
    02:00 -1°C° 0 mm 1 mps 684 mmHg 60%
    03:00 -1°C° 0 mm 1 mps 684 mmHg 61%
    04:00 -1°C° 0 mm 1 mps 684 mmHg 62%
    05:00 -1°C° 0 mm 1 mps 684 mmHg 67%
    06:00 -1°C° 0 mm 1 mps 684 mmHg 72%
    07:00 -2°C° 0 mm 0 mps 684 mmHg 77%
    08:00 0°C° 0 mm 1 mps 684 mmHg 77%
    09:00 +1°C° 0 mm 1 mps 685 mmHg 76%
    10:00 +3°C° 0 mm 1 mps 685 mmHg 75%
    11:00 +3°C° 0 mm 1 mps 685 mmHg 73%
    12:00 +4°C° 0 mm 1 mps 685 mmHg 71%
    13:00 +4°C° 0 mm 1 mps 685 mmHg 70%
    14:00 +3°C° 0 mm 1 mps 685 mmHg 75%
    15:00 +3°C° 0 mm 1 mps 684 mmHg 79%
    16:00 +2°C° 0 mm 1 mps 684 mmHg 84%
    17:00 +1°C° 0 mm 1 mps 684 mmHg 85%
    18:00 0°C° 0 mm 1 mps 683 mmHg 86%
    19:00 -2°C° 0 mm 0 mps 683 mmHg 88%
    20:00 -2°C° 0 mm 0 mps 683 mmHg 85%
    21:00 -1°C° 0 mm 1 mps 683 mmHg 82%
    22:00 -1°C° 0 mm 1 mps 683 mmHg 79%
    23:00 -1°C° 0 mm 1 mps 683 mmHg 76%

    24 January, Friday

    Time Temperature Precipitation Wind Pressure Humidity
    00:00 0°C° 0 mm 1 mps 683 mmHg 72%
    01:00 0°C° 0 mm 1 mps 683 mmHg 68%
    02:00 0°C° 0 mm 1 mps 683 mmHg 66%
    03:00 0°C° 0 mm 1 mps 682 mmHg 63%
    04:00 0°C° 0 mm 1 mps 682 mmHg 60%
    05:00 0°C° 0 mm 1 mps 682 mmHg 59%
    06:00 +1°C° 0 mm 1 mps 682 mmHg 57%
    07:00 -1°C° 0 mm 2 mps 683 mmHg 56%
    08:00 +1°C° 0 mm 2 mps 683 mmHg 54%
    09:00 +3°C° 0 mm 2 mps 684 mmHg 53%
    10:00 +4°C° 0 mm 2 mps 684 mmHg 51%
    11:00 +5°C° 0 mm 2 mps 684 mmHg 52%
    12:00 +6°C° 0 mm 2 mps 684 mmHg 53%
    13:00 +7°C° 0 mm 2 mps 683 mmHg 53%
    14:00 +5°C° 0 mm 2 mps 683 mmHg 60%
    15:00 +4°C° 0 mm 2 mps 683 mmHg 67%
    16:00 +3°C° 0 mm 2 mps 682 mmHg 73%
    17:00 +2°C° 0 mm 2 mps 682 mmHg 78%
    18:00 +1°C° 0 mm 2 mps 681 mmHg 82%
    19:00 -1°C° 0 mm 2 mps 681 mmHg 86%
    20:00 -1°C° 0 mm 2 mps 681 mmHg 88%
    21:00 -1°C° 0 mm 2 mps 681 mmHg 89%
    22:00 +1°C° 0 mm 2 mps 681 mmHg 91%
    23:00 +1°C° 0 mm 2 mps 681 mmHg 92%

    25 January, Saturday

    Time Temperature Precipitation Wind Pressure Humidity
    00:00 +1°C° 0 mm 2 mps 681 mmHg 92%
    01:00 0°C° 0 mm 3 mps 680 mmHg 93%
    02:00 +1°C° 0 mm 2 mps 680 mmHg 93%
    03:00 +1°C° 0 mm 2 mps 680 mmHg 93%
    04:00 +1°C° 0 mm 2 mps 679 mmHg 93%
    05:00 +1°C° 0.1 mm 2 mps 679 mmHg 94%
    06:00 +2°C° 0.1 mm 2 mps 679 mmHg 94%
    07:00 +2°C° 0.1 mm 2 mps 679 mmHg 94%
    08:00 +2°C° 0.3 mm 2 mps 679 mmHg 94%
    09:00 +3°C° 0.3 mm 2 mps 679 mmHg 94%
    10:00 +3°C° 0.3 mm 2 mps 679 mmHg 95%
    11:00 +3°C° 0.5 mm 2 mps 679 mmHg 94%
    12:00 +4°C° 0.5 mm 2 mps 679 mmHg 93%
    13:00 +4°C° 0.5 mm 2 mps 678 mmHg 92%
    14:00 +4°C° 0 mm 2 mps 678 mmHg 93%
    15:00 +4°C° 0 mm 2 mps 678 mmHg 94%
    16:00 +3°C° 0 mm 2 mps 678 mmHg 95%
    17:00 +3°C° 0 mm 2 mps 678 mmHg 95%
    18:00 +2°C° 0 mm 2 mps 678 mmHg 95%
    19:00 +2°C° 0 mm 2 mps 678 mmHg 95%
    20:00 +2°C° 0 mm 2 mps 678 mmHg 95%
    21:00 +2°C° 0 mm 2 mps 678 mmHg 95%
    22:00 +3°C° 0 mm 1 mps 678 mmHg 95%
    23:00 +3°C° 0.2 mm 1 mps 678 mmHg 95%
    Show more